Tucumcari, NM

1:01 AM MDT on October 17, 2017 (GMT -0600)
Tucumcari Municipal

Weather History for KTCC - December, 2012

Change the Weather History Date:

Saturday, December 29, 2012

  Actual Average Record
Temperature  
Mean Temperature 29 °F -  
Max Temperature 48 °F 50 °F 71 °F (1945)
Min Temperature 10 °F 23 °F -5 °F (1983)
Degree Days  
Heating Degree Days 36    
Moisture  
Dew Point 10 °F    
Average Humidity 49    
Maximum Humidity 77    
Minimum Humidity 22    
Precipitation  
Precipitation 0.00 in - - ()
Sea Level Pressure  
Sea Level Pressure 30.29 in    
Wind  
Wind Speed 6 mph (WSW)    
Max Wind Speed 17 mph    
Max Gust Speed 20 mph    
Visibility 10 miles    
Events      
Averages and records for this station are not official NWS values.
T = Trace of Precipitation, MM = Missing Value Source: NWS Daily Summary

Daily Weather History Graph

Daily Weather History Graph

Search for Another Location

Airport or City:

Trip Planner

Search our weather history database for the weather conditions in past years. The results will help you decide how hot, cold, wet, or windy it might be!

Date:

Astronomy

Dec. 29, 2012 Rise Set
Actual Time 7:02 AM MST 4:51 PM MST
Civil Twilight 6:34 AM MST 5:19 PM MST
Nautical Twilight 6:02 AM MST 5:51 PM MST
Astronomical Twilight 5:31 AM MST 6:22 PM MST
Moon 6:22 PM MST (12/29) 7:40 AM MST (12/29)
Length of Visible Light 10h 45m
Length of Day
9h 49m
Full, 98% of the Moon is Illuminated
Dec 29
Full
Jan 4
Last Quarter
Jan 11
New
Jan 18
First Quarter
Jan 26
Full

Hourly Weather History & Observations

Time (MST) Temp. Windchill Dew Point Humidity Pressure Visibility Wind Dir Wind Speed Gust Speed Precip Events Conditions
12:53 AM 19.9 °F - 10.9 °F 68% 30.26 in 10.0 mi Calm Calm - N/A   Clear
1:53 AM 16.0 °F 7.4 °F 7.0 °F 68% 30.29 in 10.0 mi West 5.8 mph - N/A   Clear
2:53 AM 19.0 °F 9.0 °F 10.0 °F 68% 30.29 in 10.0 mi West 8.1 mph - N/A   Clear
3:53 AM 15.1 °F 7.7 °F 7.0 °F 70% 30.31 in 10.0 mi WSW 4.6 mph - N/A   Clear
4:53 AM 19.0 °F 8.2 °F 10.9 °F 71% 30.32 in 10.0 mi West 9.2 mph - N/A   Clear
5:53 AM 18.0 °F 6.9 °F 10.0 °F 71% 30.35 in 10.0 mi WNW 9.2 mph - N/A   Clear
6:53 AM 10.9 °F 2.9 °F 5.0 °F 77% 30.39 in 10.0 mi WSW 4.6 mph - N/A   Clear
7:53 AM 18.0 °F 9.8 °F 10.0 °F 71% 30.40 in 10.0 mi West 5.8 mph - N/A   Clear
8:53 AM 26.1 °F 20.5 °F 14.0 °F 60% 30.39 in 10.0 mi West 4.6 mph - N/A   Clear
9:53 AM 32.0 °F 27.5 °F 16.0 °F 52% 30.39 in 10.0 mi West 4.6 mph - N/A   Clear
10:53 AM 37.9 °F - 16.0 °F 41% 30.35 in 10.0 mi Calm Calm - N/A   Clear
11:53 AM 41.0 °F 39.0 °F 16.0 °F 36% 30.32 in 10.0 mi SW 3.5 mph - N/A   Clear
12:53 PM 44.1 °F 40.8 °F 16.0 °F 32% 30.27 in 10.0 mi South 5.8 mph - N/A   Clear
1:53 PM 48.9 °F - 10.9 °F 22% 30.24 in 10.0 mi South 12.7 mph - N/A   Clear
2:53 PM 48.0 °F - 10.9 °F 22% 30.22 in 10.0 mi SSW 16.1 mph 19.6 mph N/A   Clear
4:53 PM 39.0 °F 33.4 °F 8.1 °F 28% 30.22 in 10.0 mi SSW 8.1 mph - N/A   Clear
5:53 PM 34.0 °F 27.2 °F 8.1 °F 34% 30.25 in 10.0 mi SW 8.1 mph - N/A   Clear
6:53 PM 32.0 °F 28.7 °F 8.1 °F 37% 30.29 in 10.0 mi SW 3.5 mph - N/A   Clear
7:53 PM 28.9 °F 21.1 °F 7.0 °F 40% 30.28 in 10.0 mi WSW 8.1 mph - N/A   Clear
8:53 PM 28.9 °F 19.8 °F 6.1 °F 38% 30.24 in 10.0 mi SW 10.4 mph - N/A   Clear
9:53 PM 32.0 °F 23.6 °F 8.1 °F 37% 30.20 in 10.0 mi SW 10.4 mph - N/A   Clear
10:53 PM 32.0 °F 24.8 °F 9.0 °F 38% 30.18 in 10.0 mi SW 8.1 mph - N/A   Clear
11:53 PM 33.1 °F 22.2 °F 12.0 °F 42% 30.17 in 10.0 mi SW 17.3 mph - N/A   Clear